User: anonymous   Login
Location: Unspecified
(0.0000°N, 0.0000°E)
Time: 17:55:28
(UTC+02:00)
Language:

DELTA 2 R/B (1) - Orbit

View from above orbital plane
View from above orbital plane
View from above satellite
View from above satellite

Ground track
Ground track

The orbit data is extracted from the following two-line orbital elements,

1 27665U 03005C   15241.48398485 -.00000040  00000-0  18003-4 0  9997
2 27665 039.5749 218.9714 0008838 310.8679 200.1546 14.28356521656864
Epoch (UTC): 29 August 2015 11:36:56
Eccentricity: 0.0008838
inclination: 39.5749°
perigee height: 791 km
apogee height: 803 km
right ascension of ascending node: 218.9714°
argument of perigee: 310.8679°
revolutions per day: 14.28356521
mean anomaly at epoch: 200.1546°
orbit number at epoch: 65686

The dashed part of the orbit path shows where the satellite is in the earth's shadow,  

DLR